Weather in Novo Hamburgo

Brazil     29°40′49″S   51°07′38″W
temp.,
°C
wind,
m/s
gust,
m/s
humid.,
%
clouds,
%
prec.,
mm/h
press.,
hPa
HPBL,
m
22 april, thu
thu2200:00+18e27812 0.0 1021369
03:00+17e27800 0.0 1020294
06:00+16ene14861 0.0 1020145
09:00+19ene23680 0.0 1021368
12:00+25e35420 0.0 10191583
15:00+27ese23310 0.0 10172217
18:00+21ese510580 0.0 1017545
21:00+18e38760 0.0 1018372
23 april, fri
fri2300:00+16ene24840 0.0 1018175
03:00+15nne12865 0.0 101872
06:00+14ne12861 0.0 101864
09:00+19ene126480 0.0 1019300
12:00+25ese12445 0.0 10171050
15:00+27s22371 0.0 10141818
18:00+22ese49610 0.0 1014542
21:00+18ese24803 0.0 1015179
24 april, sat
sat2400:00+17ne1186100 0.0 101577
03:00+16ne1189100 0.0 101432
06:00+15nne1188100 0.0 101533
09:00+18n1171100 0.0 1016262
12:00+25nw1244100 0.0 1014764
15:00+26sw2339100 0.0 10121159
18:00+23sw0150100 0.0 101312
21:00+20e126296 0.0 1014105
25 april, sun
sun2500:00+19n1271100 0.0 101441
03:00+17nw117484 0.0 101322
06:00+17nnw127897 0.0 101491
09:00+19w2569100 0.1 1015355
12:00+21w2363100 0.1 1014794
15:00+24w3451100 0.1 10121467
18:00+19sw3886100 0.8 1013335
21:00+18wsw1494100 2.7 1015259
26 april, mon
mon2600:00+18wsw129298 0.3 1015115
03:00+16w249571 0.4 1015166
06:00+13w25942 0.0 1016144
09:00+15w238259 0.0 1017329
12:00+20w136378 0.0 10171009
15:00+22wnw2351100 0.1 10151466
18:00+18n236346 0.0 101573
21:00+17e126519 0.0 101693